Total_Precipitation_Accumulation
0.87 0.92 0.99 1.04 1.12 1.26 1.38 1.42 1.46 1.48 1.50 1.57 1.66 1.75 1.77 1.80 1.84 1.83 1.75 1.71 1.66 1.58 1.57 1.61 1.61 1.55 1.60 1.61 1.65 1.77 1.91 2.08 2.12 1.70 1.44 1.44 1.58 1.61 1.62 1.55 1.50 1.50 1.48
0.76 0.78 0.83 0.90 0.95 1.03 1.14 1.20 1.25 1.31 1.35 1.39 1.39 1.42 1.50 1.57 1.66 1.71 1.69 1.63 1.59 1.52 1.46 1.50 1.53 1.52 1.57 1.59 1.65 1.71 1.76 1.84 1.94 1.82 1.54 1.43 1.42 1.39 1.36 1.34 1.31 1.25 1.20
0.70 0.75 0.78 0.79 0.82 0.86 0.90 0.96 0.97 1.04 1.14 1.23 1.25 1.24 1.25 1.29 1.36 1.47 1.55 1.56 1.52 1.47 1.48 1.48 1.48 1.55 1.60 1.60 1.65 1.70 1.68 1.63 1.62 1.61 1.44 1.27 1.24 1.24 1.30 1.25 1.22 1.21 1.10
0.67 0.70 0.75 0.73 0.75 0.77 0.77 0.80 0.79 0.81 0.84 0.91 0.99 1.03 1.10 1.15 1.18 1.23 1.32 1.42 1.48 1.49 1.51 1.52 1.52 1.59 1.68 1.70 1.71 1.69 1.64 1.59 1.51 1.48 1.41 1.28 1.21 1.17 1.26 1.29 1.26 1.23 1.17
0.66 0.65 0.68 0.70 0.70 0.71 0.70 0.69 0.66 0.66 0.67 0.70 0.79 0.86 0.94 1.02 1.07 1.14 1.20 1.28 1.34 1.38 1.45 1.52 1.56 1.66 1.73 1.70 1.58 1.48 1.44 1.45 1.40 1.39 1.33 1.24 1.18 1.17 1.19 1.12 1.10 1.12 1.16
0.63 0.62 0.62 0.65 0.67 0.68 0.66 0.61 0.61 0.63 0.66 0.68 0.72 0.77 0.85 0.92 1.13 1.21 1.19 1.19 1.25 1.30 1.32 1.35 1.42 1.49 1.43 1.43 1.40 1.33 1.37 1.46 1.45 1.34 1.20 1.07 0.93 0.90 0.93 1.02 1.10 1.21 1.27
0.69 0.65 0.61 0.63 0.66 0.67 0.68 0.69 0.69 0.68 0.71 0.73 0.73 0.77 0.81 0.91 1.11 1.17 1.29 1.23 1.23 1.24 1.23 1.22 1.18 1.12 1.14 1.01 1.07 1.09 1.10 1.17 1.19 1.15 1.13 0.92 0.80 0.78 0.94 1.09 1.12 1.11 1.03
0.85 0.82 0.75 0.77 0.81 0.85 0.86 0.87 0.86 0.85 0.87 0.89 0.87 0.89 0.93 1.03 1.17 1.17 1.22 1.14 1.08 1.04 1.00 0.99 1.00 0.94 0.93 0.98 0.98 0.97 0.85 0.80 0.79 0.77 0.77 0.73 0.75 0.83 1.02 1.20 1.25 1.25 1.10
1.03 1.11 1.07 1.04 1.08 1.14 1.17 1.16 1.13 1.12 1.11 1.11 1.11 1.09 1.08 1.09 1.12 1.04 1.03 0.96 0.92 0.85 0.79 0.80 0.84 0.84 0.92 1.07 1.06 0.99 0.87 0.78 0.79 0.84 0.86 0.86 0.94 1.02 1.13 1.33 1.50 1.64 1.53
1.14 1.24 1.21 1.18 1.18 1.20 1.21 1.17 1.11 1.07 1.06 1.03 1.03 1.00 0.93 0.87 0.88 0.85 0.83 0.79 0.78 0.70 0.67 0.69 0.81 0.86 1.01 1.15 1.12 1.07 0.99 0.83 0.80 0.84 0.84 0.83 0.82 0.87 1.00 1.04 1.21 1.58 1.59
1.11 1.10 1.06 1.00 0.94 0.93 0.91 0.87 0.82 0.79 0.78 0.74 0.73 0.70 0.65 0.62 0.65 0.70 0.76 0.77 0.78 0.77 0.71 0.67 0.70 0.87 1.00 1.12 1.18 1.10 1.05 0.99 0.94 0.94 0.94 0.90 0.87 0.89 0.89 0.87 0.95 1.27 1.58
0.82 0.78 0.73 0.71 0.67 0.66 0.69 0.66 0.62 0.59 0.59 0.57 0.54 0.54 0.53 0.51 0.55 0.62 0.72 0.78 0.83 0.85 0.76 0.64 0.64 0.83 0.97 1.04 1.07 1.09 1.16 1.15 1.05 1.03 1.02 0.98 0.93 0.90 0.86 0.83 0.87 0.95 1.08
0.54 0.51 0.50 0.50 0.51 0.51 0.54 0.56 0.54 0.52 0.53 0.52 0.52 0.53 0.53 0.51 0.52 0.60 0.67 0.73 0.80 0.80 0.74 0.76 0.82 0.91 0.95 0.96 0.99 1.05 1.08 1.03 1.03 1.03 0.96 0.84 0.77 0.77 0.82 0.91 0.97 1.00 1.03
0.47 0.46 0.44 0.45 0.47 0.50 0.54 0.57 0.59 0.59 0.62 0.62 0.61 0.60 0.57 0.54 0.53 0.58 0.68 0.73 0.79 0.81 0.81 0.82 0.85 0.91 0.94 0.95 0.98 0.98 0.97 0.98 1.02 0.98 0.86 0.78 0.78 0.84 0.91 0.95 1.05 1.12 1.25
0.46 0.47 0.48 0.47 0.47 0.51 0.55 0.60 0.67 0.68 0.75 0.87 0.84 0.78 0.79 0.74 0.67 0.78 0.90 0.92 0.94 0.97 1.02 1.00 0.92 0.88 0.92 0.93 0.91 0.91 0.93 0.99 1.02 0.95 0.94 0.94 0.93 0.93 0.94 0.95 1.06 1.17 1.27
0.49 0.49 0.52 0.54 0.53 0.53 0.55 0.61 0.69 0.73 0.76 0.79 0.81 0.86 0.85 0.86 0.89 0.94 0.95 0.97 1.00 1.09 1.17 1.07 0.90 0.82 0.81 0.82 0.84 0.88 0.90 0.93 0.95 1.00 1.05 1.08 1.09 1.08 1.06 1.04 1.11 1.25 1.25
0.56 0.58 0.60 0.60 0.61 0.62 0.62 0.64 0.70 0.75 0.78 0.77 0.75 0.78 0.83 0.89 0.95 0.97 0.99 1.02 1.07 1.13 1.11 0.90 0.77 0.74 0.75 0.77 0.82 0.86 0.89 0.89 0.98 1.10 1.15 1.15 1.18 1.21 1.20 1.19 1.18 1.25 1.25
0.49 0.55 0.59 0.61 0.63 0.65 0.67 0.67 0.69 0.72 0.75 0.76 0.75 0.76 0.80 0.86 0.92 0.99 1.05 1.12 1.15 1.07 0.94 0.81 0.76 0.75 0.79 0.84 0.89 0.93 0.95 0.97 1.05 1.12 1.14 1.16 1.23 1.33 1.34 1.27 1.22 1.27 1.32
0.49 0.54 0.59 0.63 0.65 0.67 0.68 0.71 0.71 0.70 0.71 0.71 0.71 0.79 0.86 0.92 0.95 1.00 1.03 1.04 0.97 0.88 0.81 0.79 0.79 0.83 0.86 0.91 0.96 1.00 1.05 1.08 1.08 1.13 1.14 1.14 1.22 1.39 1.36 1.19 1.23 1.29 1.40
0.53 0.61 0.67 0.69 0.69 0.69 0.71 0.75 0.76 0.74 0.74 0.73 0.74 0.83 0.98 1.07 1.03 0.97 0.95 0.90 0.87 0.83 0.82 0.84 0.85 0.90 0.96 1.01 1.04 1.08 1.12 1.10 1.11 1.15 1.14 1.15 1.21 1.35 1.37 1.26 1.27 1.37 1.34
0.56 0.60 0.69 0.70 0.68 0.70 0.74 0.78 0.78 0.78 0.77 0.74 0.76 0.87 1.14 1.23 1.08 0.94 0.91 0.89 0.90 0.91 0.94 0.96 0.94 0.97 1.02 1.07 1.10 1.11 1.11 1.06 1.05 1.13 1.16 1.18 1.25 1.33 1.27 1.29 1.30 1.34 1.42
0.59 0.61 0.64 0.68 0.69 0.74 0.80 0.82 0.83 0.81 0.76 0.74 0.73 0.82 1.00 1.00 0.93 0.91 0.88 0.86 0.87 0.91 0.98 1.07 1.05 0.99 1.05 1.16 1.23 1.24 1.15 1.03 0.99 1.09 1.18 1.19 1.25 1.29 1.32 1.37 1.39 1.47 1.52
0.63 0.64 0.65 0.66 0.69 0.76 0.79 0.75 0.76 0.77 0.75 0.73 0.74 0.76 0.81 0.83 0.81 0.83 0.85 0.85 0.87 0.90 0.92 0.99 1.01 0.93 0.91 1.04 1.17 1.33 1.36 1.15 1.06 1.19 1.40 1.40 1.38 1.41 1.50 1.54 1.46 1.45 1.37
0.64 0.65 0.66 0.67 0.69 0.71 0.72 0.69 0.69 0.72 0.73 0.74 0.73 0.72 0.72 0.75 0.76 0.77 0.81 0.85 0.89 0.89 0.89 0.93 0.94 0.90 0.88 0.97 1.04 1.10 1.19 1.29 1.50 1.63 1.77 1.97 1.84 1.64 1.61 1.56 1.41 1.34 1.35
0.63 0.65 0.67 0.69 0.71 0.72 0.71 0.69 0.67 0.68 0.70 0.71 0.72 0.71 0.70 0.71 0.72 0.73 0.75 0.80 0.83 0.85 0.83 0.84 0.88 0.90 0.90 0.93 0.96 1.00 1.10 1.29 1.63 2.08 2.27 2.17 1.86 1.60 1.59 1.55 1.41 1.37 1.38
0.61 0.65 0.68 0.69 0.71 0.70 0.70 0.70 0.68 0.68 0.71 0.71 0.72 0.73 0.74 0.74 0.73 0.74 0.75 0.78 0.81 0.79 0.78 0.78 0.79 0.83 0.88 0.92 0.90 0.96 1.10 1.24 1.37 1.60 2.05 2.19 1.92 1.62 1.59 1.68 1.53 1.47 1.46